Retour au catalogue

THORAD AGENA D DEB

ActifPO
NORAD 14466·DEBRIS·🇺🇸 United States

Lancé Apr 8, 1970 depuis Vandenberg Space Force Base

Loading…

Prochains Passages (prochaines 24 heures)

TLE

FraisSource: Space-Track

Époque: Sep 14, 2026, 20:14 UTC

1 14466U 70025NS  26257.84332179  .00004988  00000-0  10188-2 0  9993
2 14466  99.9703 107.0711 0044061   5.9704 354.2007 14.60873343325502

Suivez THORAD AGENA D DEB en temps réel avec AllMySat

Download on the App Store